[[{"header":{"parameterUnit":"m.s-1","parameterCategory":1,"la1":30.2991,"la2":30.254,"lo1":-89.0895,"lo2":-89.0444,"dy":0.0017,"dx":0.0017,"nx":28,"ny":28,"refTime":"2024-04-29T03:00:00:Z","depth":0,"parameterNumber":2,"parameterNumberName":"U-component_of_WINDS"},"data":[0,0,0,0,0,0,0,0,0,0,0,0,0,0,0,0,0,0,0,0,0,0,0,0,0,0,0,0,0,0,0,0,0,0,0,0,0,0,0,0,0,0,0,0,0,0,0,0,0,0,0,0,0,0,0,0,0,0,3.1642,3.1642,0,3.1686,3.1686,3.1687,3.1683,3.1683,3.1682,3.1681,3.1724,3.1726,3.1727,0,0,0,0,0,0,0,0,0,0,0,0,0,3.155,3.1552,3.1642,3.1642,3.1643,3.1686,3.1686,3.1687,3.1683,3.1683,3.1682,3.1681,3.1723,3.1725,3.1727,0,0,0,0,0,0,0,0,0,0,0,0,0,3.1592,3.1553,3.1642,3.1646,3.1647,3.1686,3.1686,3.1687,3.1684,3.1683,3.1682,3.1681,3.1723,3.1725,3.1728,3.1764,0,0,3.1736,3.1737,0,0,0,0,0,0,0,0,3.159,3.1595,3.1645,3.1646,3.1647,3.1678,3.167,3.1713,3.1684,3.167,3.1681,3.168,3.1709,3.1713,3.1723,3.1766,3.1767,3.1736,3.1738,3.1739,3.1739,0,0,0,0,0,0,0,3.1587,3.1593,3.1659,3.1646,3.1647,3.1645,3.165,3.1678,3.1694,3.1671,3.1671,3.1676,3.171,3.1721,3.1724,3.1768,3.1736,3.1738,3.174,3.1741,3.184,3.1841,0,0,0,0,0,0,3.1583,3.1591,3.1658,3.166,3.1615,3.1647,3.1653,3.1669,3.1694,3.1697,3.1677,3.1676,3.1717,3.1721,3.1726,3.1769,3.1739,3.1741,3.1743,3.1839,3.1841,3.1842,0,0,0,0,0,0,3.1581,3.1589,3.1656,3.1626,3.1634,3.165,3.1668,3.1671,3.1682,3.1699,3.1701,3.1686,3.1716,3.1722,3.1754,3.177,3.1742,3.1745,3.1838,3.184,3.1841,3.1855,0,0,0,0,0,0,3.1579,3.1589,3.1603,3.1626,3.1636,3.1685,3.1669,3.1672,3.1687,3.1686,3.1708,3.171,3.1716,3.175,3.1757,3.1773,3.1747,3.1837,3.1839,3.1841,3.1854,3.1857,3.186,0,0,0,0,0,3.1575,3.1605,3.1604,3.1612,3.1655,3.1686,3.1691,3.1698,3.1688,3.1702,3.1713,3.1709,3.1767,3.1754,3.1761,3.1778,3.1836,3.1838,3.1841,3.1852,3.1857,3.186,0,0,0,0,0,0,3.1583,3.1608,3.1607,3.1646,3.1664,3.1685,3.1704,3.1703,3.1723,3.1721,3.1728,3.1733,3.1765,3.1775,3.1759,3.1814,3.18,3.1804,3.1806,3.1811,3.1814,3.1811,3.1749,0,0,0,0,0,3.1589,3.1614,3.1634,3.1666,3.1675,3.1688,3.1701,3.1705,3.1723,3.1731,3.1744,3.1761,3.1783,3.1797,3.1818,3.1855,3.1859,3.187,3.1874,3.1876,3.188,3.1899,3.1904,3.185,3.185,3.185,0,0,3.1602,3.1619,3.1634,3.1668,3.1682,3.1706,3.1694,3.172,3.1737,3.1734,3.1766,3.1776,3.1795,3.1829,3.1845,3.1838,3.1896,3.188,3.1882,3.1884,3.1902,3.1907,3.1911,3.1851,3.1851,3.1851,0,0,3.1638,3.1654,3.1682,3.1696,3.1718,3.1727,3.1733,3.1755,3.1761,3.1793,3.1791,3.1811,3.1849,3.1863,3.1875,3.1914,3.1912,3.1921,3.1939,3.1957,3.1962,3.1965,3.1979,3.1984,3.1924,3.1924,3.1924,0,3.1652,3.1689,3.1696,3.1722,3.1736,3.1735,3.1763,3.1776,3.1803,3.1813,3.1805,3.1852,3.1865,3.1902,3.1912,3.1922,3.1928,3.1919,3.1961,3.1965,3.1968,3.1981,3.1987,3.1925,3.1925,3.1925,3.1925,0,3.1703,3.1729,3.1748,3.1776,3.1792,3.1819,3.1829,3.1844,3.1846,3.1854,3.1885,3.1901,3.1925,3.1934,3.1935,3.197,3.1966,3.1959,3.1946,3.1974,3.1987,3.1992,3.1926,3.1926,3.1926,3.1926,0,0,3.1747,3.1777,3.1784,3.1796,3.182,3.1839,3.1865,3.1889,3.1901,3.192,3.1941,3.1972,3.1966,3.198,3.1983,3.1999,3.2029,3.1991,3.1991,3.1997,3.2067,3.2072,3.2078,3.2027,3.2028,3.2029,3.2066,0,3.1785,3.1832,3.1839,3.188,3.1903,3.1901,3.1923,3.1939,3.1948,3.1967,3.1975,3.1998,3.1988,3.1996,3.2012,3.2022,3.2043,3.2019,3.2046,3.2047,3.2041,3.2085,3.209,3.2125,3.2071,3.2072,3.2072,0,3.1837,3.1857,3.1901,3.192,3.193,3.195,3.1972,3.1991,3.2009,3.2013,3.2028,3.2029,3.2054,3.2039,3.2073,3.2057,3.2068,3.2074,3.2075,3.2078,3.2061,3.2089,3.2136,3.2141,3.208,3.2079,3.2079,0,3.1864,3.1902,3.1933,3.1943,3.1967,3.1981,3.1991,3.2008,3.2021,3.204,3.2049,3.207,3.2081,3.2097,3.2103,3.2091,3.2136,3.2122,3.214,3.214,3.215,3.2149,3.22,3.2157,3.2157,3.2157,3.2157,0,3.1906,3.1933,3.1945,3.1964,3.1993,3.2,3.2028,3.2037,3.2052,3.2072,3.2071,3.2089,3.2096,3.2115,3.2119,3.2147,3.2152,3.2156,3.2157,3.2156,3.2155,3.2164,3.2161,3.2158,3.2158,3.2157,3.2157,0,3.1942,3.1951,3.1985,3.2004,3.201,3.203,3.2046,3.2064,3.2071,3.2096,3.2102,3.2114,3.2136,3.2143,3.217,3.2173,3.2204,3.2203,3.2199,3.2199,3.2217,3.2215,3.2274,3.2282,3.2234,3.2234,3.2235,0,3.1968,3.1989,3.2011,3.2024,3.2035,3.2057,3.2071,3.2077,3.2091,3.2112,3.2127,3.2149,3.2167,3.2203,3.2213,3.2233,3.2232,3.2251,3.2235,3.2233,3.2232,3.2231,3.2233,3.2254,3.2255,3.2255,3.2256,0,3.2015,3.2018,3.2039,3.2061,3.2078,3.2095,3.2112,3.2123,3.2131,3.2147,3.217,3.2184,3.2211,3.2233,3.2253,3.2262,3.226,3.226,3.2266,3.2266,3.2262,3.2264,3.2207,3.2259,3.2259,3.2259,3.2258,3.2258,3.2047,3.2065,3.2083,3.2105,3.2119,3.2134,3.2151,3.2161,3.218,3.2204,3.2205,3.223,3.2245,3.2273,3.2283,3.2301,3.2296,3.2303,3.2305,3.2307,3.2309,3.2259,3.2305,3.2305,3.2305,3.2304,3.2304,0,3.2093,3.2104,3.2125,3.2149,3.2166,3.2163,3.2181,3.2196,3.2218,3.2233,3.225,3.2276,3.2297,3.2308,3.2328,3.2341,3.234,3.2346,3.2345,3.2347,3.2312,3.2306,3.2346,3.2346,3.2346,3.2346,3.2346,3.2346,3.212,3.215,3.2155,3.2191,3.2201,3.2226,3.2236,3.225,3.2262,3.2291,3.2309,3.2316,3.2329,3.235,3.2368,3.2371,3.2378,3.2385,3.2387,3.2354,3.235,3.2346,3.234,3.2386,3.2386,3.242,3.242,3.242]},{"header":{"parameterUnit":"m.s-1","parameterCategory":1,"la1":30.2991,"la2":30.254,"lo1":-89.0895,"lo2":-89.0444,"dy":0.0017,"dx":0.0017,"nx":28,"ny":28,"refTime":"2024-04-29T03:00:00:Z","depth":0,"parameterNumber":3,"parameterNumberName":"V-component_of_WINDS"},"data":[0,0,0,0,0,0,0,0,0,0,0,0,0,0,0,0,0,0,0,0,0,0,0,0,0,0,0,0,0,0,0,0,0,0,0,0,0,0,0,0,0,0,0,0,0,0,0,0,0,0,0,0,0,0,0,0,0,0,-0.6715,-0.6716,0,-0.681,-0.6811,-0.6813,-0.6827,-0.6826,-0.6825,-0.6824,-0.6926,-0.6929,-0.6933,0,0,0,0,0,0,0,0,0,0,0,0,0,-0.6549,-0.6552,-0.6715,-0.6716,-0.6717,-0.681,-0.6812,-0.6813,-0.6827,-0.6826,-0.6825,-0.6824,-0.6925,-0.6929,-0.6933,0,0,0,0,0,0,0,0,0,0,0,0,0,-0.6631,-0.6553,-0.6715,-0.6735,-0.6738,-0.681,-0.6812,-0.6813,-0.6827,-0.6826,-0.6825,-0.6824,-0.6923,-0.6928,-0.6934,-0.6992,0,0,-0.695,-0.6952,0,0,0,0,0,0,0,0,-0.6626,-0.6637,-0.6731,-0.6734,-0.6737,-0.6805,-0.679,-0.6873,-0.6828,-0.6794,-0.6824,-0.6823,-0.6887,-0.6895,-0.6916,-0.6997,-0.7001,-0.695,-0.6953,-0.6955,-0.6957,0,0,0,0,0,0,0,-0.662,-0.6633,-0.6753,-0.6733,-0.6736,-0.6742,-0.6752,-0.6806,-0.6847,-0.6797,-0.6798,-0.6809,-0.6888,-0.6911,-0.6919,-0.7003,-0.695,-0.6955,-0.6958,-0.696,-0.7138,-0.714,0,0,0,0,0,0,-0.661,-0.6628,-0.675,-0.6756,-0.6677,-0.6746,-0.6757,-0.6785,-0.6846,-0.6854,-0.681,-0.6809,-0.6903,-0.6912,-0.6922,-0.6996,-0.6955,-0.696,-0.6963,-0.7137,-0.7139,-0.714,0,0,0,0,0,0,-0.6607,-0.6621,-0.6746,-0.6692,-0.6708,-0.675,-0.6781,-0.6788,-0.681,-0.6856,-0.6864,-0.6825,-0.6902,-0.6915,-0.6975,-0.6999,-0.6963,-0.6968,-0.7135,-0.7137,-0.7139,-0.7142,0,0,0,0,0,0,-0.6602,-0.662,-0.6641,-0.6692,-0.6711,-0.6795,-0.6783,-0.679,-0.6819,-0.6819,-0.6872,-0.688,-0.6902,-0.6967,-0.698,-0.7006,-0.6972,-0.7133,-0.7136,-0.7139,-0.714,-0.7145,-0.7148,0,0,0,0,0,-0.6596,-0.6639,-0.6642,-0.6657,-0.6739,-0.6797,-0.6808,-0.6831,-0.682,-0.6843,-0.6873,-0.6878,-0.6994,-0.6973,-0.6988,-0.7016,-0.7131,-0.7135,-0.7138,-0.7138,-0.7144,-0.7148,0,0,0,0,0,0,-0.659,-0.6646,-0.665,-0.671,-0.6749,-0.6799,-0.6828,-0.6836,-0.6878,-0.6877,-0.6905,-0.6917,-0.6976,-0.7002,-0.6977,-0.7076,-0.7062,-0.7069,-0.7057,-0.7063,-0.7066,-0.7059,-0.6976,0,0,0,0,0,-0.6595,-0.6637,-0.6684,-0.6732,-0.6751,-0.6787,-0.6813,-0.6827,-0.6869,-0.6885,-0.6919,-0.696,-0.7006,-0.7036,-0.7081,-0.7144,-0.7157,-0.7171,-0.7175,-0.7178,-0.7184,-0.7221,-0.7228,-0.7152,-0.7152,-0.7152,0,0,-0.6608,-0.6643,-0.6667,-0.6732,-0.6763,-0.6807,-0.68,-0.6846,-0.6879,-0.6893,-0.6951,-0.6978,-0.7026,-0.7088,-0.7117,-0.7111,-0.7207,-0.7183,-0.7185,-0.7189,-0.7225,-0.7232,-0.7239,-0.7154,-0.7154,-0.7154,0,0,-0.6652,-0.6682,-0.6727,-0.6758,-0.6806,-0.6829,-0.684,-0.689,-0.6908,-0.6967,-0.6978,-0.7019,-0.7097,-0.7131,-0.7158,-0.7217,-0.7224,-0.7231,-0.7252,-0.7287,-0.7293,-0.7299,-0.7321,-0.7328,-0.7236,-0.7236,-0.7236,0,-0.6661,-0.6726,-0.6749,-0.6795,-0.6824,-0.6837,-0.6884,-0.6914,-0.6974,-0.6994,-0.6986,-0.7085,-0.7118,-0.7189,-0.7204,-0.7225,-0.724,-0.7225,-0.729,-0.7296,-0.7302,-0.7323,-0.7331,-0.7237,-0.7237,-0.7237,-0.7237,0,-0.6736,-0.678,-0.6811,-0.6868,-0.69,-0.6946,-0.6977,-0.7008,-0.702,-0.7045,-0.7106,-0.7146,-0.72,-0.7218,-0.7231,-0.7291,-0.7286,-0.7284,-0.7271,-0.7309,-0.7329,-0.7338,-0.7238,-0.7237,-0.7237,-0.7237,0,0,-0.6778,-0.6847,-0.6858,-0.6885,-0.6939,-0.6975,-0.7022,-0.7074,-0.71,-0.7141,-0.7182,-0.7249,-0.7247,-0.7279,-0.7296,-0.7327,-0.7372,-0.7321,-0.7323,-0.733,-0.7443,-0.7445,-0.7454,-0.7377,-0.7379,-0.738,-0.744,0,-0.6829,-0.6912,-0.6935,-0.7006,-0.7049,-0.7063,-0.7105,-0.7143,-0.7168,-0.7209,-0.7237,-0.7284,-0.7278,-0.7297,-0.7329,-0.736,-0.7396,-0.7356,-0.7417,-0.7419,-0.7405,-0.7464,-0.7466,-0.7519,-0.7448,-0.7449,-0.745,0,-0.6899,-0.6941,-0.7016,-0.7066,-0.7085,-0.7121,-0.7171,-0.721,-0.7254,-0.7271,-0.7306,-0.732,-0.7372,-0.7356,-0.7428,-0.7401,-0.7427,-0.7447,-0.745,-0.7456,-0.7437,-0.7473,-0.7537,-0.7545,-0.7463,-0.7462,-0.7461,0,-0.6923,-0.6999,-0.7054,-0.7076,-0.7135,-0.7161,-0.7187,-0.723,-0.726,-0.7304,-0.7325,-0.7374,-0.7402,-0.7441,-0.747,-0.7455,-0.754,-0.7526,-0.7556,-0.7555,-0.7573,-0.7572,-0.7643,-0.759,-0.759,-0.759,-0.7589,0,-0.6978,-0.7024,-0.7066,-0.7099,-0.7152,-0.7179,-0.723,-0.7257,-0.7296,-0.7336,-0.7352,-0.739,-0.7425,-0.7468,-0.7491,-0.7548,-0.756,-0.7576,-0.7581,-0.7575,-0.7573,-0.7593,-0.759,-0.7592,-0.7591,-0.7591,-0.759,0,-0.7014,-0.7044,-0.7105,-0.7156,-0.717,-0.7206,-0.725,-0.7285,-0.731,-0.7361,-0.7375,-0.7416,-0.7468,-0.75,-0.7566,-0.7581,-0.7645,-0.7649,-0.7629,-0.7632,-0.766,-0.7658,-0.7747,-0.7761,-0.7698,-0.7698,-0.7699,0,-0.7047,-0.7082,-0.7137,-0.7165,-0.7191,-0.7235,-0.7266,-0.7295,-0.7326,-0.7381,-0.7409,-0.7461,-0.7505,-0.7588,-0.7624,-0.7675,-0.7681,-0.7709,-0.7689,-0.7681,-0.7682,-0.768,-0.7684,-0.7712,-0.7713,-0.7713,-0.7714,0,-0.7103,-0.7116,-0.7159,-0.7207,-0.7243,-0.7283,-0.7323,-0.7345,-0.7381,-0.7416,-0.7469,-0.7503,-0.757,-0.7623,-0.7677,-0.7706,-0.7716,-0.772,-0.7729,-0.7723,-0.771,-0.7718,-0.7639,-0.7717,-0.7717,-0.7717,-0.7717,-0.7716,-0.7139,-0.7171,-0.7215,-0.7263,-0.7295,-0.7333,-0.7368,-0.7398,-0.7442,-0.7498,-0.7513,-0.7568,-0.7614,-0.7688,-0.7718,-0.7763,-0.7759,-0.7773,-0.7777,-0.778,-0.7781,-0.7703,-0.7773,-0.7773,-0.7773,-0.7773,-0.7773,0,-0.7196,-0.7225,-0.7268,-0.7323,-0.7361,-0.7367,-0.7412,-0.7444,-0.7492,-0.7533,-0.7576,-0.7637,-0.7689,-0.773,-0.7783,-0.7811,-0.7818,-0.7825,-0.7823,-0.783,-0.7781,-0.7767,-0.7819,-0.7819,-0.7819,-0.7819,-0.7819,-0.7819,-0.723,-0.7285,-0.7304,-0.7377,-0.7406,-0.746,-0.7485,-0.752,-0.7553,-0.7621,-0.7663,-0.7689,-0.7731,-0.7788,-0.7836,-0.7847,-0.7866,-0.7872,-0.7884,-0.7838,-0.7833,-0.7828,-0.7816,-0.7876,-0.7876,-0.7929,-0.793,-0.793]}]]